STARLINK-3302 (50842 NORAD) Tracking and Keplerian Element Data

This shows tracking and keplerian element data for the satellite.

Feedback or suggestion? Click here.




ElementValue
Catalog50842
NameSTARLINK-3302
Epoch Orbit383
Epoch Day22.91667824
Epoch Year2022
RAAN119.745
Inclination53.2175
Eccentricity0.0001086
Argument of Perigee61.4383
Mean Anonmoly261.1139
Mean Motion15.7541674
Decay Rate-0.00821371
L11 50842U 22001AR 22022.91667824 -.00821371 00000+0 -58504-2 0 9992
L22 50842 53.2175 119.7450 0001086 61.4383 261.1139 15.75416740 3838

Live tracking and technical data element details for STARLINK-3302 (NORAD 50842). STARLINK-3302 can be tracked NOW for your location showing map with azimuth and elevation plus other details from your city location.

Track the satellite on the map from your city or location and see movement details for azimuth, elevation, latitude, longitude, range, height, and movement on the map or in text.







IsCatalogInMostPopularTable: catalog: 50842, numindb: 4
Update: records affected: 1



GetName: 50842 STARLINK-3302

Hit Count: updated at: Mon, 24 Jan 2022 00:31:36 GMT